Le nostre stazioni meteo in Italia

Pubblicità
Il mio iltempo24.it
Termoli, Italia (16232): Temperatura & dewpoint: 02.07.2020 11:00:00 - 08.07.2020 11:00:00 (CEST)Termoli, Italia (16232): velocità del vento: 02.07.2020 11:00:00 - 08.07.2020 11:00:00 (CEST)Termoli, Italia (16232): direzione del vento: 02.07.2020 11:00:00 - 08.07.2020 11:00:00 (CEST)Termoli, Italia (16232): reduced air pressure: 02.07.2020 11:00:00 - 08.07.2020 11:00:00 (CEST)Termoli, Italia (16232): visibility: 02.07.2020 11:00:00 - 08.07.2020 11:00:00 (CEST)Termoli, Italia (16232): ore di luce: 02.07.2020 11:00:00 - 08.07.2020 11:00:00 (CEST)
Data & Tempo tt [°C] td [°C] ff [km/h] ff [kn] dd ppp [hPa] vv [km] sd [min]
08.07.2020 11:00:00 24,6 15,2 24 13 NNO 1016,1 35 60
08.07.2020 10:00:00 - - - - - - - -
08.07.2020 09:00:00 - - - - - - - -
08.07.2020 08:00:00 22,8 18,4 18 10 ONO 1015,9 25 42
08.07.2020 07:00:00 - - - - - - - -
08.07.2020 06:00:00 - - - - - - - -
08.07.2020 05:00:00 - - - - - - - -
08.07.2020 04:00:00 - - - - - - - -
08.07.2020 03:00:00 - - - - - - - -
08.07.2020 02:00:00 - - - - - - - -
08.07.2020 01:00:00 - - - - - - - -
08.07.2020 00:00:00 - - - - - - - -
07.07.2020 23:00:00 - - - - - - - -
07.07.2020 22:00:00 - - - - - - - -
07.07.2020 21:00:00 - - - - - - - -
07.07.2020 20:00:00 25,0 16,4 18 10 NNO 1014,2 20 60
07.07.2020 19:00:00 - - - - - - - -
07.07.2020 18:00:00 - - - - - - - -
07.07.2020 17:00:00 24,2 18,8 28 15 NNO 1014,1 20 60
07.07.2020 16:00:00 - - - - - - - -
07.07.2020 15:00:00 - - - - - - - -
07.07.2020 14:00:00 24,4 18,4 37 20 NO 1013,4 20 60
07.07.2020 13:00:00 - - - - - - - -
07.07.2020 12:00:00 - - - - - - - -
07.07.2020 11:00:00 25,2 21,9 37 20 NO 1010,4 20 60
07.07.2020 10:00:00 - - - - - - - -
07.07.2020 09:00:00 - - - - - - - -
07.07.2020 08:00:00 24,2 21,7 26 14 NNO 1008,6 20 48
07.07.2020 07:00:00 - - - - - - - -
07.07.2020 06:00:00 - - - - - - - -
07.07.2020 05:00:00 - - - - - - - -
07.07.2020 04:00:00 - - - - - - - -
07.07.2020 03:00:00 - - - - - - - -
07.07.2020 02:00:00 - - - - - - - -
07.07.2020 01:00:00 - - - - - - - -
07.07.2020 00:00:00 - - - - - - - -
06.07.2020 23:00:00 - - - - - - - -
06.07.2020 22:00:00 - - - - - - - -
06.07.2020 21:00:00 - - - - - - - -
06.07.2020 20:00:00 27,8 22,5 8 4 ONO 1006,3 25 30
06.07.2020 19:00:00 - - - - - - - -
06.07.2020 18:00:00 - - - - - - - -
06.07.2020 17:00:00 28,4 24,4 9 5 NNO 1007,1 20 60
06.07.2020 16:00:00 - - - - - - - -
06.07.2020 15:00:00 - - - - - - - -
06.07.2020 14:00:00 27,8 23,4 21 11 NNO 1008,4 20 60
06.07.2020 13:00:00 - - - - - - - -
06.07.2020 12:00:00 - - - - - - - -
06.07.2020 11:00:00 26,8 18,9 26 14 NNO 1009,3 25 60
06.07.2020 10:00:00 - - - - - - - -
06.07.2020 09:00:00 - - - - - - - -
06.07.2020 08:00:00 25,4 16,8 24 13 NO 1009,5 25 24
06.07.2020 07:00:00 - - - - - - - -
06.07.2020 06:00:00 - - - - - - - -
06.07.2020 05:00:00 - - - - - - - -
06.07.2020 04:00:00 - - - - - - - -
06.07.2020 03:00:00 - - - - - - - -
06.07.2020 02:00:00 - - - - - - - -
06.07.2020 01:00:00 - - - - - - - -
06.07.2020 00:00:00 - - - - - - - -
05.07.2020 23:00:00 - - - - - - - -
05.07.2020 22:00:00 - - - - - - - -
05.07.2020 21:00:00 - - - - - - - -
05.07.2020 20:00:00 26,8 20,4 24 13 NO 1011,3 25 48
05.07.2020 19:00:00 - - - - - - - -
05.07.2020 18:00:00 - - - - - - - -
05.07.2020 17:00:00 27,0 21,1 28 15 NO 1012,4 25 60
05.07.2020 16:00:00 - - - - - - - -
05.07.2020 15:00:00 - - - - - - - -
05.07.2020 14:00:00 26,2 20,5 34 18 NNO 1013,1 25 60
05.07.2020 13:00:00 - - - - - - - -
05.07.2020 12:00:00 - - - - - - - -
05.07.2020 11:00:00 25,0 21,5 37 20 NO 1013,8 25 60
05.07.2020 10:00:00 - - - - - - - -
05.07.2020 09:00:00 - - - - - - - -
05.07.2020 08:00:00 24,2 20,1 41 22 NO 1012,1 25 24
05.07.2020 07:00:00 - - - - - - - -
05.07.2020 06:00:00 - - - - - - - -
05.07.2020 05:00:00 - - - - - - - -
05.07.2020 04:00:00 - - - - - - - -
05.07.2020 03:00:00 - - - - - - - -
05.07.2020 02:00:00 - - - - - - - -
05.07.2020 01:00:00 - - - - - - - -
05.07.2020 00:00:00 - - - - - - - -
04.07.2020 23:00:00 - - - - - - - -
04.07.2020 22:00:00 - - - - - - - -
04.07.2020 21:00:00 - - - - - - - -
04.07.2020 20:00:00 21,4 19,2 22 12 O 1012,8 20 0
04.07.2020 19:00:00 - - - - - - - -
04.07.2020 18:00:00 - - - - - - - -
04.07.2020 17:00:00 18,0 16,3 15 8 OSO 1015,2 7 0
04.07.2020 16:00:00 - - - - - - - -
04.07.2020 15:00:00 - - - - - - - -
04.07.2020 14:00:00 24,0 22,1 26 14 NNO 1014,1 15 0
04.07.2020 13:00:00 - - - - - - - -
04.07.2020 12:00:00 - - - - - - - -
04.07.2020 11:00:00 25,6 23,1 24 13 NO 1014,1 20 60
04.07.2020 10:00:00 - - - - - - - -
04.07.2020 09:00:00 - - - - - - - -
04.07.2020 08:00:00 22,8 20,5 22 12 ONO 1012,4 20 42
04.07.2020 07:00:00 - - - - - - - -
04.07.2020 06:00:00 - - - - - - - -
04.07.2020 05:00:00 - - - - - - - -
04.07.2020 04:00:00 - - - - - - - -
04.07.2020 03:00:00 - - - - - - - -
04.07.2020 02:00:00 - - - - - - - -
04.07.2020 01:00:00 - - - - - - - -
04.07.2020 00:00:00 - - - - - - - -
03.07.2020 23:00:00 - - - - - - - -
03.07.2020 22:00:00 - - - - - - - -
03.07.2020 21:00:00 - - - - - - - -
03.07.2020 20:00:00 25,8 23,7 18 10 O 1011,3 18 0
03.07.2020 19:00:00 - - - - - - - -
03.07.2020 18:00:00 - - - - - - - -
03.07.2020 17:00:00 28,2 25,8 11 6 NO 1010,1 25 12
03.07.2020 16:00:00 - - - - - - - -
03.07.2020 15:00:00 - - - - - - - -
03.07.2020 14:00:00 27,2 25,4 21 11 N 1009,0 20 60
03.07.2020 13:00:00 - - - - - - - -
03.07.2020 12:00:00 - - - - - - - -
03.07.2020 11:00:00 28,6 26,6 11 6 NNO 1009,1 20 60
03.07.2020 10:00:00 - - - - - - - -
03.07.2020 09:00:00 - - - - - - - -
03.07.2020 08:00:00 26,2 23,9 0 0 N 1009,1 25 18
03.07.2020 07:00:00 - - - - - - - -
03.07.2020 06:00:00 - - - - - - - -
03.07.2020 05:00:00 - - - - - - - -
03.07.2020 04:00:00 - - - - - - - -
03.07.2020 03:00:00 - - - - - - - -
03.07.2020 02:00:00 - - - - - - - -
03.07.2020 01:00:00 - - - - - - - -
03.07.2020 00:00:00 - - - - - - - -
02.07.2020 23:00:00 - - - - - - - -
02.07.2020 22:00:00 - - - - - - - -
02.07.2020 21:00:00 - - - - - - - -
02.07.2020 20:00:00 30,0 27,4 2 1 NNO 1008,9 25 0
02.07.2020 19:00:00 - - - - - - - -
02.07.2020 18:00:00 - - - - - - - -
02.07.2020 17:00:00 29,4 26,4 4 2 NO 1009,3 20 0
02.07.2020 16:00:00 - - - - - - - -
02.07.2020 15:00:00 - - - - - - - -
02.07.2020 14:00:00 28,2 26,0 22 12 N 1010,0 20 60
02.07.2020 13:00:00 - - - - - - - -
02.07.2020 12:00:00 - - - - - - - -
02.07.2020 11:00:00 28,0 25,6 9 5 N 1009,4 25 60

tt = Temperatura
td = dewpoint
ff = velocità del vento
dd = direzione del vento
ppp = reduced air pressure
vv = visibility
sd = ore di luce

Stazioni seguenti

WeatherPro
AMSI
MeteoEarth